• In Uzbekistan
  • List of Countries
  • For 7 days
  • Water Temperature
  • Satellite Maps
  • Weather Map
  • Weather Widgets
  • user-avatar
    Login

    Hourly Weather Satif

    Today, 27 June, Tuesday

    Time Temperature Precipitation Wind Pressure Humidity
    00:00 +26°C° 0 mm 1 mps 673 mmHg 44%
    01:00 +25°C° 0 mm 1 mps 673 mmHg 44%
    02:00 +25°C° 0 mm 1 mps 672 mmHg 45%
    03:00 +24°C° 0 mm 1 mps 672 mmHg 46%
    04:00 +25°C° 0.1 mm 1 mps 672 mmHg 42%
    05:00 +26°C° 0.1 mm 1 mps 673 mmHg 38%
    06:00 +28°C° 0.1 mm 1 mps 673 mmHg 34%
    07:00 +30°C° 0 mm 2 mps 674 mmHg 29%
    08:00 +34°C° 0 mm 3 mps 674 mmHg 24%
    09:00 +36°C° 0 mm 3 mps 675 mmHg 20%
    10:00 +37°C° 0 mm 4 mps 675 mmHg 18%
    11:00 +38°C° 0 mm 4 mps 675 mmHg 17%
    12:00 +39°C° 0 mm 5 mps 675 mmHg 16%
    13:00 +38°C° 0 mm 4 mps 674 mmHg 17%
    14:00 +38°C° 0 mm 4 mps 674 mmHg 17%
    15:00 +38°C° 0 mm 3 mps 674 mmHg 17%
    16:00 +36°C° 0.1 mm 3 mps 673 mmHg 21%
    17:00 +34°C° 0.1 mm 2 mps 672 mmHg 26%
    18:00 +31°C° 0.1 mm 1 mps 672 mmHg 31%
    19:00 +30°C° 0.1 mm 2 mps 672 mmHg 34%
    20:00 +28°C° 0.1 mm 2 mps 672 mmHg 37%
    21:00 +27°C° 0.1 mm 2 mps 671 mmHg 40%
    22:00 +27°C° 0 mm 2 mps 671 mmHg 41%
    23:00 +26°C° 0 mm 2 mps 671 mmHg 42%

    Tomorrow, 28 June, Wednesday

    Time Temperature Precipitation Wind Pressure Humidity
    00:00 +26°C° 0 mm 2 mps 671 mmHg 43%
    01:00 +26°C° 0 mm 2 mps 671 mmHg 44%
    02:00 +25°C° 0 mm 1 mps 671 mmHg 46%
    03:00 +24°C° 0 mm 1 mps 671 mmHg 47%
    04:00 +25°C° 0 mm 1 mps 671 mmHg 45%
    05:00 +26°C° 0 mm 1 mps 671 mmHg 42%
    06:00 +27°C° 0 mm 1 mps 672 mmHg 40%
    07:00 +29°C° 0 mm 2 mps 672 mmHg 34%
    08:00 +30°C° 0 mm 3 mps 673 mmHg 29%
    09:00 +33°C° 0 mm 4 mps 673 mmHg 24%
    10:00 +34°C° 0 mm 4 mps 673 mmHg 22%
    11:00 +35°C° 0 mm 5 mps 673 mmHg 20%
    12:00 +36°C° 0 mm 5 mps 673 mmHg 18%
    13:00 +35°C° 0 mm 5 mps 673 mmHg 19%
    14:00 +35°C° 0 mm 5 mps 673 mmHg 19%
    15:00 +35°C° 0 mm 6 mps 672 mmHg 20%
    16:00 +34°C° 0 mm 5 mps 672 mmHg 23%
    17:00 +32°C° 0 mm 4 mps 671 mmHg 27%
    18:00 +30°C° 0 mm 3 mps 671 mmHg 30%
    19:00 +27°C° 0 mm 3 mps 671 mmHg 40%
    20:00 +25°C° 0 mm 2 mps 671 mmHg 49%
    21:00 +23°C° 0 mm 1 mps 671 mmHg 58%
    22:00 +22°C° 0 mm 1 mps 671 mmHg 62%
    23:00 +21°C° 0 mm 1 mps 671 mmHg 65%

    Day after tomorrow, 29 June, Thursday

    Time Temperature Precipitation Wind Pressure Humidity
    00:00 +21°C° 0 mm 1 mps 670 mmHg 68%
    01:00 +20°C° 0 mm 1 mps 670 mmHg 70%
    02:00 +19°C° 0 mm 1 mps 670 mmHg 73%
    03:00 +18°C° 0 mm 1 mps 669 mmHg 75%
    04:00 +20°C° 0 mm 1 mps 670 mmHg 69%
    05:00 +21°C° 0 mm 1 mps 670 mmHg 64%
    06:00 +22°C° 0 mm 1 mps 671 mmHg 58%
    07:00 +25°C° 0 mm 1 mps 671 mmHg 47%
    08:00 +27°C° 0 mm 1 mps 672 mmHg 36%
    09:00 +30°C° 0 mm 1 mps 673 mmHg 25%
    10:00 +31°C° 0 mm 2 mps 673 mmHg 22%
    11:00 +34°C° 0 mm 3 mps 673 mmHg 19%
    12:00 +35°C° 0 mm 4 mps 673 mmHg 16%
    13:00 +35°C° 0 mm 4 mps 673 mmHg 17%
    14:00 +34°C° 0 mm 5 mps 672 mmHg 19%
    15:00 +34°C° 0 mm 5 mps 672 mmHg 21%
    16:00 +33°C° 0 mm 4 mps 672 mmHg 26%
    17:00 +30°C° 0 mm 3 mps 671 mmHg 32%
    18:00 +28°C° 0 mm 2 mps 671 mmHg 37%
    19:00 +26°C° 0 mm 2 mps 671 mmHg 47%
    20:00 +24°C° 0 mm 2 mps 671 mmHg 57%
    21:00 +21°C° 0 mm 2 mps 671 mmHg 67%
    22:00 +20°C° 0 mm 2 mps 670 mmHg 72%
    23:00 +19°C° 0 mm 2 mps 670 mmHg 78%

    30 June, Friday

    Time Temperature Precipitation Wind Pressure Humidity
    00:00 +18°C° 0 mm 2 mps 670 mmHg 84%
    01:00 +18°C° 0 mm 2 mps 669 mmHg 85%
    02:00 +19°C° 0 mm 1 mps 669 mmHg 85%
    03:00 +18°C° 0 mm 1 mps 669 mmHg 85%
    04:00 +19°C° 0 mm 1 mps 669 mmHg 81%
    05:00 +20°C° 0 mm 1 mps 669 mmHg 76%
    06:00 +20°C° 0 mm 1 mps 669 mmHg 72%
    07:00 +22°C° 0 mm 1 mps 670 mmHg 66%
    08:00 +23°C° 0 mm 1 mps 670 mmHg 61%
    09:00 +24°C° 0 mm 2 mps 671 mmHg 55%
    10:00 +26°C° 0.1 mm 2 mps 671 mmHg 48%
    11:00 +28°C° 0.1 mm 2 mps 672 mmHg 40%
    12:00 +30°C° 0.1 mm 2 mps 672 mmHg 33%
    13:00 +29°C° 0.2 mm 3 mps 672 mmHg 35%
    14:00 +29°C° 0.2 mm 3 mps 672 mmHg 38%
    15:00 +28°C° 0.2 mm 3 mps 672 mmHg 40%
    16:00 +27°C° 0.2 mm 3 mps 671 mmHg 47%
    17:00 +25°C° 0.2 mm 3 mps 671 mmHg 53%
    18:00 +22°C° 0.2 mm 3 mps 671 mmHg 60%
    19:00 +21°C° 0 mm 3 mps 671 mmHg 67%
    20:00 +19°C° 0 mm 2 mps 671 mmHg 74%
    21:00 +18°C° 0 mm 2 mps 672 mmHg 82%
    22:00 +17°C° 0 mm 2 mps 672 mmHg 82%
    23:00 +16°C° 0 mm 2 mps 671 mmHg 83%

    1 July, Saturday

    Time Temperature Precipitation Wind Pressure Humidity
    00:00 +16°C° 0 mm 1 mps 671 mmHg 83%
    01:00 +15°C° 0 mm 1 mps 671 mmHg 83%
    02:00 +15°C° 0 mm 1 mps 671 mmHg 84%
    03:00 +14°C° 0 mm 1 mps 670 mmHg 84%
    04:00 +15°C° 0 mm 2 mps 671 mmHg 78%
    05:00 +16°C° 0 mm 2 mps 671 mmHg 73%
    06:00 +17°C° 0 mm 2 mps 672 mmHg 67%
    07:00 +19°C° 0 mm 2 mps 673 mmHg 57%
    08:00 +20°C° 0 mm 3 mps 674 mmHg 47%
    09:00 +22°C° 0 mm 3 mps 674 mmHg 37%
    10:00 +25°C° 0 mm 3 mps 675 mmHg 33%
    11:00 +26°C° 0 mm 3 mps 675 mmHg 29%
    12:00 +27°C° 0 mm 3 mps 675 mmHg 26%
    13:00 +27°C° 0 mm 4 mps 675 mmHg 26%
    14:00 +27°C° 0 mm 4 mps 675 mmHg 25%
    15:00 +27°C° 0 mm 4 mps 675 mmHg 25%
    16:00 +26°C° 0 mm 4 mps 675 mmHg 30%
    17:00 +23°C° 0 mm 4 mps 674 mmHg 34%
    18:00 +21°C° 0 mm 4 mps 674 mmHg 39%
    19:00 +20°C° 0 mm 3 mps 674 mmHg 47%
    20:00 +18°C° 0 mm 3 mps 674 mmHg 56%
    21:00 +16°C° 0 mm 2 mps 674 mmHg 64%
    22:00 +15°C° 0 mm 2 mps 674 mmHg 68%
    23:00 +14°C° 0 mm 2 mps 674 mmHg 71%

    2 July, Sunday

    Time Temperature Precipitation Wind Pressure Humidity
    00:00 +14°C° 0 mm 1 mps 674 mmHg 75%
    01:00 +13°C° 0 mm 1 mps 674 mmHg 77%
    02:00 +13°C° 0 mm 1 mps 674 mmHg 79%
    03:00 +12°C° 0 mm 1 mps 673 mmHg 80%
    04:00 +13°C° 0 mm 1 mps 674 mmHg 76%
    05:00 +14°C° 0 mm 1 mps 674 mmHg 71%
    06:00 +15°C° 0 mm 1 mps 675 mmHg 67%
    07:00 +18°C° 0 mm 2 mps 675 mmHg 57%
    08:00 +20°C° 0 mm 2 mps 676 mmHg 47%
    09:00 +23°C° 0 mm 2 mps 677 mmHg 37%
    10:00 +24°C° 0 mm 2 mps 677 mmHg 34%
    11:00 +25°C° 0 mm 3 mps 677 mmHg 31%
    12:00 +27°C° 0 mm 3 mps 677 mmHg 27%
    13:00 +27°C° 0 mm 3 mps 677 mmHg 28%
    14:00 +27°C° 0 mm 3 mps 677 mmHg 30%
    15:00 +27°C° 0 mm 3 mps 676 mmHg 31%
    16:00 +25°C° 0 mm 3 mps 676 mmHg 37%
    17:00 +24°C° 0 mm 3 mps 676 mmHg 44%
    18:00 +21°C° 0 mm 3 mps 676 mmHg 50%
    19:00 +20°C° 0 mm 3 mps 676 mmHg 59%
    20:00 +18°C° 0 mm 2 mps 675 mmHg 69%
    21:00 +16°C° 0 mm 2 mps 675 mmHg 78%
    22:00 +15°C° 0 mm 2 mps 675 mmHg 81%
    23:00 +14°C° 0 mm 2 mps 675 mmHg 83%
    Show more